Location: Zagreb
(45.8000°N, 16.0000°E)
Time: 21:09:48
(UTC+01:00)

deb Explorer IX - Pass Details

Date: 09 October 2020
Orbit: 537 x 1106 km, 38.8° (Epoch: 30 October)

Event Time Altitude Azimuth Distance (km) Brightness Sun altitude
Rises 12:50:30 0° 209° (SSW) 3,840 ? 37.6°
Reaches altitude 10° 12:54:11 10° 193° (SSW) 2,820 ? 37.6°
Maximum altitude 12:58:41 19° 151° (SSE) 2,145 ? 37.6°
Drops below altitude 10° 13:02:51 10° 109° (ESE) 2,588 ? 37.5°
Sets 13:06:02 0° 92° (E) 3,419 ? 37.4°
